| time (UTC) | temp F | wind direction | speed MPH | gust MPH | rain 1hr in | rain 24hr in | rain mn in | humidity % | barometer mb |
| 20260508063006 | 37 | 360 | 0.0 | 0.0 | 0.00 | 0.00 | 0.00 | 93 | 1017.7 |
| 20260508062508 | 37 | 360 | 0.0 | 0.0 | 0.00 | 0.00 | 0.00 | 93 | 1017.7 |
| 20260508062005 | 38 | 360 | 0.0 | 0.0 | 0.00 | 0.00 | 0.00 | 93 | 1017.8 |
| 20260508061506 | 38 | 360 | 0.0 | 0.0 | 0.00 | 0.00 | 0.00 | 93 | 1017.7 |
| 20260508061004 | 38 | 360 | 0.0 | 0.0 | 0.00 | 0.00 | 0.00 | 92 | 1017.8 |
| 20260508060504 | 38 | 360 | 0.0 | 0.0 | 0.00 | 0.00 | 0.00 | 92 | 1017.7 |
| 20260508060003 | 38 | 360 | 0.0 | 0.0 | 0.00 | 0.01 | 0.00 | 92 | 1017.7 |
| 20260508055504 | 38 | 360 | 0.0 | 0.0 | 0.00 | 0.01 | 0.00 | 92 | 1017.7 |
| 20260508055002 | 38 | 360 | 0.0 | 0.0 | 0.00 | 0.01 | 0.00 | 92 | 1017.6 |
| 20260508054502 | 38 | 360 | 0.0 | 0.0 | 0.00 | 0.01 | 0.00 | 92 | 1017.7 |
| 20260508054001 | 38 | 360 | 0.0 | 0.0 | 0.00 | 0.01 | 0.00 | 92 | 1017.7 |
| 20260508053501 | 38 | 360 | 0.0 | 0.0 | 0.00 | 0.01 | 0.00 | 92 | 1017.8 |
| 20260508053106 | 38 | 360 | 0.0 | 0.0 | 0.00 | 0.01 | 0.00 | 92 | 1017.8 |
| 20260508052600 | 39 | 360 | 0.0 | 0.0 | 0.00 | 0.01 | 0.00 | 92 | 1017.8 |
| 20260508052101 | 39 | 360 | 0.0 | 0.0 | 0.00 | 0.01 | 0.00 | 92 | 1017.8 |
| 20260508051558 | 39 | 360 | 0.0 | 0.0 | 0.00 | 0.01 | 0.00 | 92 | 1017.8 |
| 20260508051058 | 39 | 360 | 0.0 | 0.0 | 0.00 | 0.01 | 0.00 | 91 | 1017.9 |
| 20260508050557 | 39 | 360 | 0.0 | 0.0 | 0.00 | 0.01 | 0.00 | 91 | 1017.9 |
| 20260508050059 | 39 | 360 | 0.0 | 0.0 | 0.00 | 0.01 | 0.00 | 91 | 1017.8 |
| 20260508045555 | 39 | 360 | 0.0 | 0.0 | 0.00 | 0.02 | 0.00 | 91 | 1017.8 |
| 20260508045058 | 39 | 360 | 0.0 | 0.0 | 0.00 | 0.02 | 0.00 | 91 | 1017.8 |
| 20260508044554 | 40 | 360 | 0.0 | 0.0 | 0.00 | 0.02 | 0.00 | 91 | 1017.8 |
| 20260508044056 | 40 | 360 | 0.0 | 0.0 | 0.00 | 0.02 | 0.00 | 91 | 1017.7 |
| 20260508043552 | 40 | 360 | 0.0 | 0.0 | 0.00 | 0.02 | 0.00 | 90 | 1017.7 |
| 20260508043052 | 40 | 360 | 0.0 | 0.0 | 0.00 | 0.02 | 0.00 | 90 | 1017.6 |
| 20260508042552 | 40 | 360 | 0.0 | 0.0 | 0.00 | 0.02 | 0.00 | 90 | 1017.7 |
| 20260508042054 | 40 | 360 | 0.0 | 0.0 | 0.00 | 0.02 | 0.00 | 89 | 1017.6 |
| 20260508041552 | 40 | 360 | 0.0 | 0.0 | 0.00 | 0.02 | 0.00 | 89 | 1017.5 |
| 20260508041050 | 41 | 360 | 0.0 | 0.0 | 0.00 | 0.02 | 0.00 | 89 | 1017.6 |
| 20260508040548 | 41 | 360 | 0.0 | 0.0 | 0.00 | 0.02 | 0.00 | 89 | 1017.5 |
| 20260508040048 | 41 | 360 | 0.0 | 1.0 | 0.00 | 0.02 | 0.00 | 88 | 1017.5 |
| 20260508035547 | 41 | 360 | 0.0 | 1.0 | 0.00 | 0.02 | 0.02 | 88 | 1017.4 |
| 20260508035046 | 41 | 360 | 0.0 | 1.0 | 0.00 | 0.02 | 0.02 | 88 | 1017.5 |
| 20260508034545 | 42 | 360 | 0.0 | 0.0 | 0.00 | 0.02 | 0.02 | 87 | 1017.5 |
| 20260508034044 | 42 | 360 | 0.0 | 1.0 | 0.00 | 0.02 | 0.02 | 87 | 1017.4 |
| 20260508033543 | 42 | 360 | 0.0 | 1.0 | 0.00 | 0.02 | 0.02 | 87 | 1017.4 |
| 20260508033043 | 42 | 360 | 0.0 | 0.0 | 0.00 | 0.02 | 0.02 | 86 | 1017.5 |
| 20260508032542 | 42 | 360 | 0.0 | 1.0 | 0.00 | 0.02 | 0.02 | 86 | 1017.4 |
| 20260508032044 | 43 | 360 | 0.0 | 2.0 | 0.00 | 0.02 | 0.02 | 86 | 1017.3 |
| 20260508031541 | 43 | 360 | 0.0 | 2.0 | 0.00 | 0.02 | 0.02 | 86 | 1017.3 |
| 20260508031041 | 43 | 360 | 0.0 | 0.0 | 0.00 | 0.02 | 0.02 | 86 | 1017.3 |
| 20260508030540 | 43 | 360 | 0.0 | 1.0 | 0.00 | 0.02 | 0.02 | 85 | 1017.2 |
| 20260508030041 | 43 | 360 | 0.0 | 1.0 | 0.00 | 0.02 | 0.02 | 84 | 1017.3 |
| 20260508025537 | 44 | 360 | 0.0 | 0.0 | 0.00 | 0.02 | 0.02 | 83 | 1017.3 |
| 20260508025037 | 44 | 360 | 0.0 | 1.0 | 0.00 | 0.02 | 0.02 | 83 | 1017.2 |
| 20260508024544 | 44 | 360 | 0.0 | 1.0 | 0.00 | 0.02 | 0.02 | 82 | 1017.1 |
| 20260508024036 | 44 | 360 | 0.0 | 2.0 | 0.00 | 0.02 | 0.02 | 81 | 1016.9 |
| 20260508023534 | 45 | 360 | 0.0 | 2.0 | 0.00 | 0.02 | 0.02 | 79 | 1017.0 |
| 20260508023036 | 46 | 360 | 0.0 | 2.0 | 0.00 | 0.02 | 0.02 | 76 | 1016.9 |
| 20260508022532 | 46 | 360 | 0.0 | 2.0 | 0.00 | 0.02 | 0.02 | 74 | 1016.8 |
| 20260508022031 | 46 | 360 | 0.0 | 2.0 | 0.00 | 0.02 | 0.02 | 73 | 1016.7 |
| 20260508021531 | 46 | 360 | 0.0 | 1.0 | 0.00 | 0.02 | 0.02 | 73 | 1016.5 |
| 20260508021032 | 46 | 360 | 0.0 | 2.0 | 0.00 | 0.02 | 0.02 | 73 | 1016.5 |
| 20260508020529 | 46 | 360 | 0.0 | 2.0 | 0.00 | 0.02 | 0.02 | 75 | 1016.4 |
| 20260508020028 | 47 | 360 | 0.0 | 0.0 | 0.00 | 0.02 | 0.02 | 76 | 1016.4 |
| 20260508015528 | 47 | 360 | 0.0 | 1.0 | 0.00 | 0.02 | 0.02 | 75 | 1016.4 |
| 20260508015027 | 47 | 360 | 0.0 | 2.0 | 0.00 | 0.02 | 0.02 | 75 | 1016.3 |
| 20260508014532 | 48 | 360 | 0.0 | 2.0 | 0.00 | 0.02 | 0.02 | 73 | 1016.3 |
| 20260508014027 | 48 | 360 | 0.0 | 1.0 | 0.00 | 0.02 | 0.02 | 73 | 1016.2 |
| 20260508013530 | 48 | 360 | 0.0 | 1.0 | 0.00 | 0.02 | 0.02 | 74 | 1016.2 |
| 20260508013026 | 49 | 360 | 0.0 | 2.0 | 0.00 | 0.02 | 0.02 | 70 | 1016.2 |
| 20260508012526 | 49 | 360 | 0.0 | 2.0 | 0.00 | 0.02 | 0.02 | 68 | 1016.1 |
| 20260508012028 | 49 | 360 | 0.0 | 2.0 | 0.00 | 0.02 | 0.02 | 72 | 1015.9 |
| 20260508011533 | 50 | 360 | 1.0 | 2.0 | 0.00 | 0.02 | 0.02 | 70 | 1015.8 |
| 20260508011025 | 50 | 360 | 0.0 | 2.0 | 0.00 | 0.02 | 0.02 | 69 | 1015.5 |
| 20260508010525 | 51 | 360 | 0.0 | 2.0 | 0.00 | 0.02 | 0.02 | 66 | 1015.4 |
| 20260508010030 | 52 | 360 | 1.0 | 2.0 | 0.00 | 0.02 | 0.02 | 64 | 1015.5 |
| 20260508005534 | 53 | 360 | 0.0 | 1.0 | 0.00 | 0.02 | 0.02 | 62 | 1015.3 |
| 20260508005025 | 54 | 360 | 0.0 | 2.0 | 0.00 | 0.02 | 0.02 | 60 | 1015.3 |
| 20260508004524 | 55 | 360 | 0.0 | 2.0 | 0.00 | 0.02 | 0.02 | 47 | 1015.2 |
| 20260508004025 | 56 | 360 | 0.0 | 2.0 | 0.00 | 0.02 | 0.02 | 44 | 1015.2 |
| 20260508003524 | 56 | 360 | 0.0 | 2.0 | 0.00 | 0.02 | 0.02 | 43 | 1015.1 |
| 20260508003034 | 57 | 360 | 1.0 | 4.0 | 0.00 | 0.02 | 0.02 | 43 | 1015.1 |
| 20260508002525 | 57 | 360 | 2.0 | 4.0 | 0.00 | 0.02 | 0.02 | 43 | 1015.1 |
| 20260508002023 | 57 | 360 | 1.0 | 3.0 | 0.00 | 0.02 | 0.02 | 42 | 1015.0 |
| 20260508001523 | 58 | 360 | 0.0 | 3.0 | 0.00 | 0.02 | 0.02 | 42 | 1015.0 |
| 20260508001023 | 58 | 360 | 1.0 | 4.0 | 0.00 | 0.02 | 0.02 | 40 | 1014.7 |
| 20260508000525 | 58 | 360 | 2.0 | 4.0 | 0.00 | 0.02 | 0.02 | 43 | 1014.7 |
| 20260508000025 | 59 | 360 | 1.0 | 5.0 | 0.00 | 0.02 | 0.02 | 39 | 1014.6 |
| 20260507235523 | 59 | 360 | 2.0 | 8.0 | 0.00 | 0.02 | 0.02 | 39 | 1014.6 |
| 20260507235027 | 59 | 360 | 2.0 | 8.0 | 0.00 | 0.02 | 0.02 | 39 | 1014.4 |
| 20260507234522 | 59 | 360 | 3.0 | 6.0 | 0.00 | 0.02 | 0.02 | 40 | 1014.4 |
| 20260507234023 | 60 | 360 | 2.0 | 5.0 | 0.00 | 0.02 | 0.02 | 44 | 1014.5 |
| 20260507233521 | 60 | 360 | 1.0 | 5.0 | 0.00 | 0.02 | 0.02 | 41 | 1014.4 |
| 20260507233021 | 60 | 360 | 1.0 | 3.0 | 0.00 | 0.02 | 0.02 | 41 | 1014.5 |
| 20260507232520 | 60 | 360 | 1.0 | 4.0 | 0.00 | 0.02 | 0.02 | 45 | 1014.5 |
| 20260507232020 | 61 | 360 | 1.0 | 8.0 | 0.00 | 0.02 | 0.02 | 44 | 1014.3 |
| 20260507231520 | 61 | 360 | 2.0 | 8.0 | 0.00 | 0.02 | 0.02 | 41 | 1014.2 |
| 20260507231020 | 61 | 360 | 1.0 | 4.0 | 0.00 | 0.02 | 0.02 | 43 | 1014.1 |
| 20260507230523 | 61 | 360 | 2.0 | 4.0 | 0.00 | 0.02 | 0.02 | 41 | 1014.2 |
| 20260507230020 | 61 | 360 | 2.0 | 5.0 | 0.00 | 0.02 | 0.02 | 40 | 1014.1 |
| 20260507225519 | 61 | 360 | 2.0 | 5.0 | 0.00 | 0.02 | 0.02 | 42 | 1014.0 |
| 20260507225020 | 61 | 360 | 3.0 | 5.0 | 0.00 | 0.02 | 0.02 | 41 | 1013.9 |
| 20260507224519 | 62 | 360 | 1.0 | 5.0 | 0.00 | 0.02 | 0.02 | 41 | 1013.9 |
| 20260507224019 | 62 | 360 | 3.0 | 5.0 | 0.00 | 0.02 | 0.02 | 40 | 1013.7 |
| 20260507223518 | 62 | 360 | 2.0 | 8.0 | 0.00 | 0.02 | 0.02 | 42 | 1013.8 |
| 20260507223019 | 62 | 360 | 3.0 | 8.0 | 0.00 | 0.02 | 0.02 | 40 | 1013.7 |
| 20260507222519 | 62 | 360 | 2.0 | 5.0 | 0.00 | 0.02 | 0.02 | 42 | 1013.8 |
| 20260507222017 | 62 | 360 | 2.0 | 9.0 | 0.00 | 0.02 | 0.02 | 42 | 1013.8 |
| 20260507221517 | 61 | 360 | 2.0 | 9.0 | 0.00 | 0.02 | 0.02 | 42 | 1013.7 |
| 20260507221018 | 62 | 360 | 1.0 | 11.0 | 0.00 | 0.02 | 0.02 | 42 | 1013.6 |
| 20260507220518 | 62 | 360 | 3.0 | 11.0 | 0.00 | 0.02 | 0.02 | 40 | 1013.6 |
| 20260507220017 | 62 | 360 | 2.0 | 4.0 | 0.00 | 0.02 | 0.02 | 39 | 1013.6 |
| 20260507215517 | 62 | 360 | 1.0 | 4.0 | 0.00 | 0.02 | 0.02 | 42 | 1013.5 |
| 20260507215015 | 62 | 360 | 2.0 | 6.0 | 0.00 | 0.02 | 0.02 | 41 | 1013.5 |
| 20260507214516 | 63 | 360 | 3.0 | 8.0 | 0.00 | 0.02 | 0.02 | 40 | 1013.3 |
| 20260507214018 | 63 | 360 | 3.0 | 8.0 | 0.00 | 0.02 | 0.02 | 39 | 1013.2 |
| 20260507213519 | 63 | 360 | 3.0 | 6.0 | 0.00 | 0.02 | 0.02 | 40 | 1013.2 |
| 20260507213021 | 63 | 360 | 2.0 | 8.0 | 0.00 | 0.02 | 0.02 | 43 | 1013.1 |
| 20260507212515 | 64 | 360 | 2.0 | 8.0 | 0.00 | 0.02 | 0.02 | 41 | 1013.0 |
| 20260507212015 | 63 | 360 | 2.0 | 6.0 | 0.00 | 0.02 | 0.02 | 41 | 1013.1 |
| 20260507211515 | 63 | 360 | 3.0 | 8.0 | 0.00 | 0.02 | 0.02 | 42 | 1013.0 |
| 20260507211014 | 63 | 360 | 3.0 | 9.0 | 0.00 | 0.02 | 0.02 | 41 | 1013.0 |
| 20260507210516 | 64 | 360 | 3.0 | 9.0 | 0.00 | 0.02 | 0.02 | 43 | 1012.9 |
| 20260507210113 | 63 | 360 | 3.0 | 6.0 | 0.00 | 0.02 | 0.02 | 44 | 1012.8 |
| 20260507205513 | 62 | 360 | 1.0 | 4.0 | 0.00 | 0.02 | 0.02 | 47 | 1012.8 |
| 20260507205013 | 62 | 360 | 2.0 | 5.0 | 0.00 | 0.02 | 0.02 | 44 | 1012.9 |
| 20260507204512 | 61 | 360 | 2.0 | 5.0 | 0.00 | 0.02 | 0.02 | 45 | 1013.0 |
| 20260507204012 | 61 | 360 | 2.0 | 5.0 | 0.00 | 0.02 | 0.02 | 46 | 1012.9 |
| 20260507203516 | 61 | 360 | 2.0 | 6.0 | 0.00 | 0.02 | 0.02 | 44 | 1012.9 |
| 20260507203013 | 61 | 360 | 3.0 | 6.0 | 0.00 | 0.02 | 0.02 | 45 | 1013.0 |
| 20260507202511 | 61 | 360 | 2.0 | 5.0 | 0.00 | 0.02 | 0.02 | 44 | 1012.9 |
| 20260507202010 | 62 | 360 | 2.0 | 5.0 | 0.00 | 0.02 | 0.02 | 43 | 1012.7 |
| 20260507201511 | 63 | 360 | 2.0 | 5.0 | 0.00 | 0.02 | 0.02 | 46 | 1012.7 |
| 20260507201012 | 62 | 360 | 2.0 | 6.0 | 0.00 | 0.02 | 0.02 | 44 | 1012.9 |
| 20260507200508 | 63 | 360 | 2.0 | 6.0 | 0.00 | 0.02 | 0.02 | 42 | 1013.0 |
| 20260507200017 | 64 | 360 | 3.0 | 6.0 | 0.00 | 0.02 | 0.02 | 45 | 1013.2 |
| 20260507195507 | 63 | 360 | 3.0 | 6.0 | 0.00 | 0.02 | 0.02 | 42 | 1013.3 |
| 20260507195007 | 64 | 360 | 1.0 | 5.0 | 0.00 | 0.02 | 0.02 | 45 | 1013.2 |
| 20260507194506 | 63 | 360 | 2.0 | 8.0 | 0.00 | 0.02 | 0.02 | 42 | 1013.3 |
| 20260507194005 | 63 | 360 | 3.0 | 8.0 | 0.00 | 0.02 | 0.02 | 44 | 1013.5 |
| 20260507193504 | 61 | 360 | 1.0 | 6.0 | 0.00 | 0.02 | 0.02 | 48 | 1013.6 |
| 20260507193006 | 61 | 360 | 3.0 | 8.0 | 0.00 | 0.02 | 0.02 | 45 | 1013.6 |
| 20260507192504 | 62 | 360 | 3.0 | 8.0 | 0.00 | 0.02 | 0.02 | 48 | 1013.8 |
| 20260507192004 | 63 | 360 | 3.0 | 6.0 | 0.00 | 0.02 | 0.02 | 46 | 1013.7 |
| 20260507191503 | 63 | 360 | 2.0 | 6.0 | 0.00 | 0.02 | 0.02 | 43 | 1013.6 |
| 20260507191003 | 62 | 360 | 3.0 | 10.0 | 0.00 | 0.02 | 0.02 | 46 | 1013.6 |
| 20260507190503 | 62 | 360 | 4.0 | 10.0 | 0.00 | 0.02 | 0.02 | 44 | 1013.7 |
| 20260507190008 | 63 | 360 | 2.0 | 5.0 | 0.00 | 0.02 | 0.02 | 45 | 1013.6 |
| 20260507185503 | 63 | 360 | 2.0 | 6.0 | 0.00 | 0.02 | 0.02 | 45 | 1013.6 |
| 20260507185001 | 63 | 360 | 2.0 | 6.0 | 0.00 | 0.02 | 0.02 | 45 | 1013.8 |
| 20260507184600 | 63 | 360 | 2.0 | 5.0 | 0.00 | 0.02 | 0.02 | 45 | 1013.9 |
| 20260507184100 | 62 | 360 | 2.0 | 5.0 | 0.00 | 0.02 | 0.02 | 49 | 1013.8 |
| 20260507183559 | 61 | 360 | 2.0 | 6.0 | 0.00 | 0.02 | 0.02 | 48 | 1013.9 |
| 20260507183101 | 61 | 360 | 3.0 | 6.0 | 0.00 | 0.02 | 0.02 | 47 | 1013.9 |
| 20260507182559 | 62 | 360 | 2.0 | 6.0 | 0.00 | 0.02 | 0.02 | 46 | 1013.7 |
| 20260507182058 | 61 | 360 | 3.0 | 6.0 | 0.00 | 0.02 | 0.02 | 46 | 1013.7 |
| 20260507181557 | 61 | 360 | 2.0 | 5.0 | 0.00 | 0.02 | 0.02 | 49 | 1013.9 |
| 20260507181057 | 59 | 360 | 2.0 | 4.0 | 0.00 | 0.02 | 0.02 | 52 | 1014.0 |
| 20260507180556 | 60 | 360 | 2.0 | 4.0 | 0.00 | 0.02 | 0.02 | 49 | 1014.1 |
| 20260507180104 | 60 | 360 | 2.0 | 5.0 | 0.00 | 0.02 | 0.02 | 51 | 1014.1 |
| 20260507175555 | 61 | 360 | 2.0 | 4.0 | 0.00 | 0.02 | 0.02 | 48 | 1014.0 |
| 20260507175055 | 60 | 360 | 1.0 | 4.0 | 0.00 | 0.02 | 0.02 | 49 | 1014.2 |
| 20260507174555 | 60 | 360 | 1.0 | 8.0 | 0.00 | 0.02 | 0.02 | 49 | 1014.3 |
| 20260507174054 | 61 | 360 | 1.0 | 8.0 | 0.00 | 0.02 | 0.02 | 47 | 1014.2 |
| 20260507173553 | 61 | 360 | 2.0 | 4.0 | 0.00 | 0.02 | 0.02 | 47 | 1014.3 |
| 20260507173056 | 60 | 360 | 2.0 | 6.0 | 0.00 | 0.02 | 0.02 | 51 | 1014.5 |
| 20260507172554 | 60 | 360 | 3.0 | 6.0 | 0.00 | 0.02 | 0.02 | 50 | 1014.5 |
| 20260507172053 | 59 | 360 | 1.0 | 5.0 | 0.00 | 0.02 | 0.02 | 52 | 1014.5 |
| 20260507171556 | 60 | 360 | 3.0 | 5.0 | 0.00 | 0.02 | 0.02 | 49 | 1014.5 |
| 20260507171052 | 60 | 360 | 1.0 | 5.0 | 0.00 | 0.02 | 0.02 | 52 | 1014.4 |
| 20260507170555 | 60 | 360 | 2.0 | 5.0 | 0.00 | 0.02 | 0.02 | 49 | 1014.6 |
| 20260507170051 | 59 | 360 | 2.0 | 5.0 | 0.00 | 0.02 | 0.02 | 52 | 1014.7 |
| 20260507165550 | 59 | 360 | 1.0 | 5.0 | 0.00 | 0.02 | 0.02 | 51 | 1014.7 |
| 20260507165052 | 59 | 360 | 2.0 | 5.0 | 0.00 | 0.02 | 0.02 | 52 | 1014.9 |
| 20260507164549 | 59 | 360 | 2.0 | 3.0 | 0.00 | 0.02 | 0.02 | 54 | 1014.9 |
| 20260507164049 | 59 | 360 | 1.0 | 4.0 | 0.00 | 0.02 | 0.02 | 52 | 1015.0 |
| 20260507163548 | 60 | 360 | 2.0 | 4.0 | 0.00 | 0.02 | 0.02 | 53 | 1015.2 |
| 20260507163050 | 60 | 360 | 1.0 | 4.0 | 0.00 | 0.02 | 0.02 | 49 | 1015.3 |
| 20260507162548 | 60 | 360 | 2.0 | 4.0 | 0.00 | 0.02 | 0.02 | 51 | 1015.3 |
| 20260507162051 | 61 | 360 | 1.0 | 4.0 | 0.00 | 0.02 | 0.02 | 47 | 1015.2 |
| 20260507161546 | 61 | 360 | 1.0 | 4.0 | 0.00 | 0.02 | 0.02 | 50 | 1015.1 |
| 20260507161044 | 61 | 360 | 2.0 | 5.0 | 0.00 | 0.02 | 0.02 | 51 | 1015.3 |
| 20260507160547 | 60 | 360 | 2.0 | 5.0 | 0.00 | 0.02 | 0.02 | 52 | 1015.4 |
| 20260507160051 | 60 | 360 | 2.0 | 4.0 | 0.00 | 0.02 | 0.02 | 52 | 1015.4 |
| 20260507155543 | 58 | 360 | 1.0 | 4.0 | 0.00 | 0.03 | 0.02 | 54 | 1015.5 |
| 20260507155045 | 58 | 360 | 2.0 | 4.0 | 0.00 | 0.03 | 0.02 | 56 | 1015.6 |
| 20260507154543 | 59 | 360 | 2.0 | 5.0 | 0.00 | 0.03 | 0.02 | 56 | 1015.5 |
| 20260507154041 | 59 | 360 | 2.0 | 6.0 | 0.00 | 0.03 | 0.02 | 54 | 1015.5 |
| 20260507153545 | 60 | 360 | 1.0 | 6.0 | 0.00 | 0.03 | 0.02 | 53 | 1015.6 |
| 20260507153049 | 60 | 360 | 1.0 | 4.0 | 0.00 | 0.03 | 0.02 | 54 | 1015.6 |
| 20260507152541 | 61 | 360 | 0.0 | 4.0 | 0.00 | 0.03 | 0.02 | 54 | 1015.6 |
| 20260507152038 | 60 | 360 | 1.0 | 8.0 | 0.00 | 0.03 | 0.02 | 53 | 1015.6 |
| 20260507151539 | 59 | 360 | 1.0 | 8.0 | 0.00 | 0.03 | 0.02 | 58 | 1015.6 |
| 20260507151035 | 59 | 360 | 1.0 | 5.0 | 0.00 | 0.03 | 0.02 | 58 | 1015.8 |
| 20260507150538 | 59 | 360 | 1.0 | 4.0 | 0.00 | 0.03 | 0.02 | 59 | 1015.7 |
| 20260507150033 | 58 | 360 | 1.0 | 4.0 | 0.00 | 0.03 | 0.02 | 59 | 1015.6 |
| 20260507145532 | 57 | 360 | 1.0 | 4.0 | 0.00 | 0.03 | 0.02 | 62 | 1015.7 |
| 20260507145031 | 58 | 360 | 1.0 | 4.0 | 0.00 | 0.03 | 0.02 | 62 | 1015.7 |
| 20260507144530 | 57 | 360 | 0.0 | 3.0 | 0.00 | 0.03 | 0.02 | 62 | 1015.6 |
| 20260507144028 | 58 | 360 | 0.0 | 3.0 | 0.00 | 0.03 | 0.02 | 65 | 1015.7 |
| 20260507143530 | 58 | 360 | 0.0 | 3.0 | 0.00 | 0.03 | 0.02 | 69 | 1015.9 |
| 20260507143025 | 57 | 360 | 0.0 | 3.0 | 0.00 | 0.03 | 0.02 | 64 | 1015.9 |
| 20260507142524 | 56 | 360 | 1.0 | 3.0 | 0.00 | 0.03 | 0.02 | 63 | 1016.0 |
| 20260507142022 | 56 | 360 | 0.0 | 3.0 | 0.00 | 0.03 | 0.02 | 65 | 1016.2 |
| 20260507141521 | 57 | 360 | 1.0 | 3.0 | 0.00 | 0.03 | 0.02 | 67 | 1016.2 |
| 20260507141021 | 56 | 360 | 0.0 | 2.0 | 0.00 | 0.03 | 0.02 | 68 | 1016.3 |
| 20260507140518 | 55 | 360 | 0.0 | 2.0 | 0.00 | 0.03 | 0.02 | 68 | 1016.4 |
| 20260507140019 | 55 | 360 | 0.0 | 2.0 | 0.00 | 0.03 | 0.02 | 68 | 1016.5 |
| 20260507135515 | 54 | 360 | 0.0 | 2.0 | 0.00 | 0.04 | 0.02 | 75 | 1016.6 |
| 20260507135014 | 54 | 360 | 0.0 | 0.0 | 0.00 | 0.04 | 0.02 | 79 | 1016.5 |
| 20260507134519 | 54 | 360 | 0.0 | 0.0 | 0.00 | 0.04 | 0.02 | 81 | 1016.6 |
| 20260507134014 | 54 | 360 | 0.0 | 0.0 | 0.00 | 0.04 | 0.02 | 84 | 1016.5 |
| 20260507133510 | 53 | 360 | 0.0 | 0.0 | 0.00 | 0.04 | 0.02 | 87 | 1016.5 |
| 20260507133009 | 51 | 360 | 0.0 | 1.0 | 0.00 | 0.04 | 0.02 | 88 | 1016.6 |
| 20260507132510 | 50 | 360 | 0.0 | 0.0 | 0.00 | 0.04 | 0.02 | 90 | 1016.6 |
| 20260507132008 | 50 | 360 | 0.0 | 2.0 | 0.00 | 0.04 | 0.02 | 90 | 1016.7 |
| 20260507131506 | 50 | 360 | 0.0 | 2.0 | 0.00 | 0.04 | 0.02 | 91 | 1016.7 |
| 20260507131005 | 50 | 360 | 0.0 | 1.0 | 0.00 | 0.04 | 0.02 | 92 | 1016.7 |
| 20260507130505 | 50 | 360 | 0.0 | 0.0 | 0.00 | 0.04 | 0.02 | 93 | 1016.7 |
| 20260507130005 | 50 | 360 | 0.0 | 0.0 | 0.00 | 0.06 | 0.02 | 94 | 1016.7 |
| 20260507125503 | 50 | 360 | 0.0 | 0.0 | 0.00 | 0.06 | 0.02 | 95 | 1016.6 |
| 20260507125001 | 50 | 360 | 0.0 | 0.0 | 0.00 | 0.06 | 0.02 | 95 | 1016.7 |
| 20260507124501 | 50 | 360 | 0.0 | 0.0 | 0.00 | 0.06 | 0.02 | 95 | 1016.7 |
| 20260507124100 | 49 | 360 | 0.0 | 0.0 | 0.00 | 0.06 | 0.02 | 95 | 1016.8 |
| 20260507123559 | 49 | 360 | 0.0 | 0.0 | 0.00 | 0.06 | 0.02 | 96 | 1016.8 |
| 20260507123101 | 49 | 360 | 0.0 | 0.0 | 0.00 | 0.06 | 0.02 | 96 | 1016.7 |
| 20260507122558 | 49 | 360 | 0.0 | 0.0 | 0.00 | 0.06 | 0.02 | 96 | 1016.7 |
| 20260507122059 | 49 | 360 | 0.0 | 0.0 | 0.00 | 0.06 | 0.02 | 96 | 1016.8 |
| 20260507121554 | 49 | 360 | 0.0 | 0.0 | 0.00 | 0.06 | 0.02 | 96 | 1016.8 |
| 20260507121053 | 49 | 360 | 0.0 | 0.0 | 0.00 | 0.06 | 0.02 | 96 | 1016.8 |
| 20260507120552 | 49 | 360 | 0.0 | 0.0 | 0.00 | 0.06 | 0.02 | 96 | 1016.8 |
| 20260507120050 | 49 | 360 | 0.0 | 0.0 | 0.00 | 0.06 | 0.02 | 96 | 1016.9 |
| 20260507115550 | 49 | 360 | 0.0 | 0.0 | 0.00 | 0.08 | 0.02 | 96 | 1016.8 |
| 20260507115049 | 49 | 360 | 0.0 | 0.0 | 0.00 | 0.08 | 0.02 | 96 | 1016.7 |
| 20260507114549 | 49 | 360 | 0.0 | 0.0 | 0.00 | 0.08 | 0.02 | 96 | 1016.7 |
| 20260507114048 | 48 | 360 | 0.0 | 0.0 | 0.00 | 0.08 | 0.02 | 96 | 1016.6 |
| 20260507113547 | 48 | 360 | 0.0 | 0.0 | 0.00 | 0.08 | 0.02 | 96 | 1016.4 |
| 20260507113046 | 48 | 360 | 0.0 | 0.0 | 0.00 | 0.08 | 0.02 | 96 | 1016.4 |
| 20260507112545 | 48 | 360 | 0.0 | 0.0 | 0.00 | 0.08 | 0.02 | 96 | 1016.3 |
| 20260507112044 | 48 | 360 | 0.0 | 0.0 | 0.00 | 0.08 | 0.02 | 96 | 1016.2 |
| 20260507111546 | 48 | 360 | 0.0 | 0.0 | 0.00 | 0.08 | 0.02 | 96 | 1016.2 |
| 20260507111042 | 48 | 360 | 0.0 | 0.0 | 0.00 | 0.08 | 0.02 | 96 | 1016.1 |
| 20260507110541 | 48 | 360 | 0.0 | 0.0 | 0.00 | 0.08 | 0.02 | 96 | 1016.0 |
| 20260507110039 | 48 | 360 | 0.0 | 0.0 | 0.00 | 0.08 | 0.02 | 96 | 1016.0 |
| 20260507105539 | 48 | 360 | 0.0 | 0.0 | 0.00 | 0.18 | 0.02 | 96 | 1016.0 |
| 20260507105039 | 48 | 360 | 0.0 | 0.0 | 0.00 | 0.18 | 0.02 | 96 | 1016.0 |
| 20260507104541 | 48 | 360 | 0.0 | 0.0 | 0.00 | 0.18 | 0.02 | 96 | 1015.7 |
| 20260507104037 | 48 | 360 | 0.0 | 0.0 | 0.00 | 0.18 | 0.02 | 96 | 1015.7 |
| 20260507103537 | 48 | 360 | 0.0 | 0.0 | 0.00 | 0.18 | 0.02 | 96 | 1015.7 |
| 20260507103038 | 48 | 360 | 0.0 | 0.0 | 0.00 | 0.18 | 0.02 | 96 | 1015.6 |
| 20260507102538 | 48 | 360 | 0.0 | 0.0 | 0.00 | 0.18 | 0.02 | 96 | 1015.6 |
| 20260507102037 | 48 | 360 | 0.0 | 0.0 | 0.00 | 0.18 | 0.02 | 96 | 1015.8 |
| 20260507101544 | 48 | 360 | 0.0 | 0.0 | 0.00 | 0.18 | 0.02 | 96 | 1015.7 |
| 20260507101039 | 48 | 360 | 0.0 | 0.0 | 0.00 | 0.18 | 0.02 | 96 | 1015.8 |
| 20260507100535 | 48 | 360 | 0.0 | 0.0 | 0.00 | 0.18 | 0.02 | 96 | 1015.8 |
| 20260507100037 | 48 | 360 | 0.0 | 0.0 | 0.00 | 0.18 | 0.02 | 96 | 1015.8 |
| 20260507095536 | 48 | 360 | 0.0 | 0.0 | 0.00 | 0.32 | 0.02 | 96 | 1015.8 |
| 20260507095035 | 48 | 360 | 0.0 | 0.0 | 0.00 | 0.32 | 0.02 | 96 | 1015.8 |
| 20260507094536 | 48 | 360 | 0.0 | 0.0 | 0.00 | 0.32 | 0.02 | 96 | 1015.7 |
| 20260507094034 | 48 | 360 | 0.0 | 0.0 | 0.00 | 0.32 | 0.02 | 96 | 1015.6 |
| 20260507093534 | 48 | 360 | 0.0 | 0.0 | 0.00 | 0.32 | 0.02 | 96 | 1015.5 |
| 20260507093039 | 48 | 360 | 0.0 | 0.0 | 0.00 | 0.32 | 0.02 | 96 | 1015.5 |
| 20260507092535 | 48 | 360 | 0.0 | 0.0 | 0.00 | 0.32 | 0.02 | 96 | 1015.5 |
| 20260507092034 | 48 | 360 | 0.0 | 0.0 | 0.00 | 0.32 | 0.02 | 96 | 1015.5 |
| 20260507091532 | 49 | 360 | 0.0 | 0.0 | 0.00 | 0.32 | 0.02 | 96 | 1015.4 |
| 20260507091031 | 49 | 360 | 0.0 | 0.0 | 0.00 | 0.32 | 0.02 | 96 | 1015.4 |
| 20260507090531 | 49 | 360 | 0.0 | 0.0 | 0.00 | 0.32 | 0.02 | 96 | 1015.4 |
| 20260507090032 | 49 | 360 | 0.0 | 0.0 | 0.00 | 0.32 | 0.02 | 96 | 1015.4 |
| 20260507085529 | 49 | 360 | 0.0 | 0.0 | 0.00 | 0.50 | 0.02 | 96 | 1015.2 |
| 20260507085030 | 49 | 360 | 0.0 | 0.0 | 0.00 | 0.50 | 0.02 | 96 | 1015.1 |
| 20260507084529 | 50 | 360 | 0.0 | 0.0 | 0.00 | 0.50 | 0.02 | 96 | 1015.2 |
| 20260507084035 | 50 | 360 | 0.0 | 0.0 | 0.00 | 0.50 | 0.02 | 96 | 1015.3 |
| 20260507083527 | 50 | 360 | 0.0 | 0.0 | 0.00 | 0.50 | 0.02 | 96 | 1015.4 |
| 20260507083036 | 50 | 360 | 0.0 | 0.0 | 0.00 | 0.50 | 0.02 | 96 | 1015.4 |
| 20260507082528 | 50 | 360 | 0.0 | 0.0 | 0.00 | 0.50 | 0.02 | 96 | 1015.5 |
| 20260507082027 | 50 | 360 | 0.0 | 0.0 | 0.00 | 0.50 | 0.02 | 96 | 1015.5 |
| 20260507081529 | 50 | 360 | 0.0 | 0.0 | 0.00 | 0.50 | 0.02 | 96 | 1015.4 |
| 20260507081027 | 50 | 360 | 0.0 | 0.0 | 0.00 | 0.50 | 0.02 | 96 | 1015.4 |
| 20260507080527 | 50 | 360 | 0.0 | 0.0 | 0.00 | 0.50 | 0.02 | 96 | 1015.4 |
| 20260507080025 | 50 | 360 | 0.0 | 0.0 | 0.00 | 0.50 | 0.02 | 96 | 1015.5 |
| 20260507075527 | 50 | 360 | 0.0 | 0.0 | 0.00 | 0.52 | 0.02 | 96 | 1015.4 |
| 20260507075025 | 50 | 360 | 0.0 | 0.0 | 0.00 | 0.52 | 0.02 | 96 | 1015.5 |
| 20260507074528 | 50 | 360 | 0.0 | 0.0 | 0.00 | 0.52 | 0.02 | 96 | 1015.5 |
| 20260507074025 | 50 | 360 | 0.0 | 0.0 | 0.00 | 0.52 | 0.02 | 96 | 1015.5 |
| 20260507073523 | 50 | 360 | 0.0 | 0.0 | 0.00 | 0.52 | 0.02 | 96 | 1015.5 |
| 20260507073023 | 50 | 360 | 0.0 | 0.0 | 0.00 | 0.52 | 0.02 | 96 | 1015.6 |
| 20260507072523 | 50 | 360 | 0.0 | 0.0 | 0.00 | 0.52 | 0.02 | 96 | 1015.6 |
| 20260507072122 | 50 | 360 | 0.0 | 0.0 | 0.00 | 0.52 | 0.02 | 96 | 1015.6 |
| 20260507071522 | 50 | 360 | 0.0 | 0.0 | 0.00 | 0.52 | 0.02 | 96 | 1015.5 |
| 20260507071027 | 50 | 360 | 0.0 | 0.0 | 0.00 | 0.52 | 0.02 | 96 | 1015.5 |
| 20260507070522 | 50 | 360 | 0.0 | 0.0 | 0.00 | 0.52 | 0.02 | 95 | 1015.4 |
| 20260507070022 | 50 | 360 | 0.0 | 0.0 | 0.00 | 0.52 | 0.02 | 95 | 1015.4 |
| 20260507065521 | 50 | 360 | 0.0 | 0.0 | 0.00 | 0.52 | 0.02 | 95 | 1015.5 |
| 20260507065021 | 50 | 360 | 0.0 | 0.0 | 0.00 | 0.52 | 0.02 | 95 | 1015.5 |
| 20260507064520 | 50 | 360 | 0.0 | 0.0 | 0.00 | 0.52 | 0.02 | 95 | 1015.5 |
| 20260507064022 | 50 | 360 | 0.0 | 0.0 | 0.00 | 0.52 | 0.02 | 95 | 1015.6 |
| 20260507063520 | 50 | 360 | 0.0 | 0.0 | 0.00 | 0.52 | 0.02 | 95 | 1015.6 |